CW0467 Weather Reports


time (UTC)temp
F
wind
direction
speed
knots
gust
knots
rain 1hr
in
rain 24hr
in
rain mn
in
humidity
%
barometer
mb
20260902052713 62 83 0.0 0.0 0.00 0.00 0.00 88 1018.0
20260902050712 62 83 0.0 0.0 0.00 0.00 0.00 88 1017.8
20260902044712 62 83 0.0 0.0 0.00 0.00 0.00 88 1017.5
20260902040712 62 83 0.0 0.0 0.00 0.00 0.00 88 1017.2
20260902035712 62 83 0.0 0.0 0.00 0.00 0.00 88 1017.0
20260902031712 61 83 0.0 0.0 0.00 0.00 0.00 88 1017.3
20260902030713 61 83 0.0 0.0 0.00 0.00 0.00 88 1017.1
20260902013713 62 83 0.0 0.0 0.00 0.00 0.00 88 1016.8
20260902012712 62 83 0.0 0.0 0.00 0.00 0.00 88 1017.0
20260902011712 62 83 0.0 0.0 0.00 0.00 0.00 88 1016.9
20260902010712 63 83 0.0 0.0 0.00 0.00 0.00 88 1016.8
20260902001712 64 83 0.0 0.0 0.00 0.00 0.00 88 1016.9
20260902000712 64 83 0.0 0.0 0.00 0.00 0.00 88 1016.8
20260901235713 64 83 0.0 0.9 0.00 0.00 0.00 88 1016.5
20260901234742 64 65 0.9 2.6 0.00 0.00 0.00 88 1016.4
20260901232712 65 212 0.0 0.0 0.00 0.00 0.00 88 1016.5
20260901231712 65 212 0.0 0.0 0.00 0.00 0.00 88 1016.3
20260901230712 65 212 0.0 0.0 0.00 0.00 0.00 88 1016.3
20260901225712 65 212 0.0 0.0 0.00 0.00 0.00 87 1016.3
20260901224712 65 212 0.0 0.0 0.00 0.00 0.00 87 1016.3
20260901223712 65 212 0.0 0.0 0.00 0.00 0.00 87 1016.3
20260901222712 65 212 0.0 0.0 0.00 0.00 0.00 87 1016.4
20260901221713 66 212 0.0 0.0 0.00 0.00 0.00 87 1016.5
20260901220712 66 212 0.0 0.0 0.00 0.00 0.00 87 1016.5
20260901214712 66 212 0.0 0.0 0.00 0.00 0.00 86 1016.5
20260901211713 66 212 0.0 0.0 0.00 0.00 0.00 86 1016.3
20260901205713 66 212 0.0 0.0 0.00 0.00 0.00 86 1016.1
20260901204712 66 212 0.0 0.0 0.00 0.00 0.00 86 1015.9
20260901201712 66 212 0.9 1.7 0.00 0.00 0.00 86 1015.6
20260901200712 66 210 0.0 0.0 0.00 0.00 0.00 85 1015.6
20260901195712 65 210 0.0 0.0 0.00 0.00 0.00 85 1015.6
20260901193722 65 216 0.0 0.0 0.00 0.00 0.00 85 1015.6
20260901192714 66 216 0.0 0.0 0.00 0.00 0.00 85 1015.7
20260901185712 67 210 0.0 0.0 0.00 0.00 0.00 84 1015.6
20260901184712 67 210 0.0 0.0 0.00 0.00 0.00 84 1015.6
20260901183712 67 184 0.0 0.9 0.00 0.00 0.00 84 1015.5
20260901175711 69 188 0.9 1.7 0.00 0.00 0.00 83 1015.1
20260901173712 70 98 0.9 5.2 0.00 0.00 0.00 84 1015.1
20260901172712 69 165 1.7 4.3 0.00 0.00 0.00 85 1015.4
20260901171713 69 179 0.9 2.6 0.00 0.00 0.00 85 1015.4
20260901170712 69 28 0.9 4.3 0.00 0.00 0.00 85 1015.5
20260901162712 70 129 1.7 5.2 0.00 0.00 0.00 87 1015.1
20260901161713 70 109 0.9 5.2 0.00 0.00 0.00 87 1015.2
20260901150712 69 77 0.9 4.3 0.00 0.00 0.00 88 1015.6
20260901144712 69 88 0.0 0.0 0.00 0.00 0.00 88 1015.7
20260901143714 69 88 0.0 1.7 0.00 0.00 0.00 88 1015.7
20260901141712 68 14 0.0 0.0 0.00 0.00 0.00 88 1015.8
20260901140712 68 14 0.0 0.0 0.00 0.00 0.00 88 1016.0
20260901135712 67 14 0.0 0.9 0.00 0.00 0.00 88 1015.9
20260901134712 67 88 0.0 0.0 0.00 0.00 0.00 88 1016.0
20260901133713 67 88 0.0 0.0 0.00 0.00 0.00 88 1015.9
20260901132712 67 88 0.0 0.0 0.00 0.00 0.00 88 1016.0
20260901130712 67 88 0.0 0.0 0.00 0.00 0.00 88 1015.8
20260901125712 67 88 0.0 0.0 0.00 0.00 0.00 88 1015.8
20260901122712 67 88 0.0 0.0 0.00 0.00 0.00 88 1015.8
20260901121712 67 88 0.0 0.0 0.00 0.00 0.00 88 1015.7
20260901113713 66 88 0.0 0.0 0.00 0.00 0.00 88 1015.6
20260901111731 65 88 0.0 0.0 0.00 0.00 0.00 88 1015.4
20260901104712 65 88 0.0 0.0 0.00 0.00 0.00 88 1015.3
20260901101713 65 88 0.0 0.0 0.00 0.00 0.00 87 1015.1
20260901093712 65 88 0.0 0.0 0.00 0.00 0.00 87 1014.9
20260901092712 65 88 0.0 0.0 0.00 0.00 0.00 87 1015.1
20260901091713 65 88 0.0 0.0 0.00 0.00 0.00 87 1015.1
20260901085712 65 88 0.0 0.0 0.00 0.00 0.00 87 1015.1
20260901083712 65 88 0.0 0.0 0.00 0.00 0.00 87 1015.3
20260901082712 65 88 0.0 0.0 0.00 0.00 0.00 87 1015.4
20260901074713 65 88 0.0 0.0 0.00 0.00 0.00 88 1015.5
20260901073712 65 88 0.0 0.0 0.00 0.00 0.00 88 1015.6
20260901072714 65 88 0.0 0.0 0.00 0.00 0.00 88 1015.6
20260901070712 65 88 0.0 0.0 0.00 0.00 0.00 88 1015.6
20260901065712 65 88 0.0 0.0 0.00 0.00 0.00 88 1015.8
20260901064713 65 88 0.0 0.0 0.00 0.00 0.00 88 1015.9
20260901062712 65 88 0.0 0.0 0.00 0.00 0.00 88 1016.0